Vorticity
0 20 5 6 7 7 8 8 8 8 9 11 13 16 18 15 24 6 17 17 5 11 13 -0 6 8 14 9 6 8 8 12 12 14 14 15 13 11 12 15 10 11 17
12 6 9 7 7 9 8 8 9 10 11 14 19 17 15 12 13 19 6 4 13 9 3 10 12 9 8 10 8 10 12 15 17 15 15 15 18 17 14 14 14 11 11
9 7 8 10 7 6 8 9 10 11 14 18 16 17 16 15 15 20 -11 17 11 12 11 11 10 9 11 8 10 15 20 17 13 12 12 15 16 18 17 17 14 13 12
7 6 6 5 7 8 9 10 12 13 15 19 19 16 14 16 18 -6 17 8 11 10 9 9 10 10 9 11 21 19 11 11 14 15 15 16 16 17 19 19 19 15 15
5 6 5 6 9 9 10 12 11 12 16 18 14 12 14 15 14 14 9 9 8 8 9 9 10 11 11 21 17 11 12 14 15 15 15 16 18 19 16 16 18 16 12
6 6 6 9 9 10 10 10 10 12 14 15 13 13 18 16 12 10 9 9 7 7 7 10 11 11 14 21 13 10 12 14 15 14 14 13 11 15 16 18 19 17 12
6 7 8 9 9 9 11 10 11 14 11 14 13 15 14 9 11 9 10 8 6 8 9 12 13 10 14 17 12 10 13 15 17 17 13 15 19 9 13 13 14 20 17
6 7 8 8 9 11 11 12 12 13 12 15 13 13 13 11 8 10 10 6 7 9 11 12 12 10 15 16 12 9 13 16 15 17 13 14 15 17 16 14 17 11 18
7 8 8 9 10 11 12 13 11 11 14 16 13 12 11 11 9 11 8 6 8 9 11 12 10 11 16 16 12 11 17 18 16 19 15 11 17 18 20 18 17 6 15
8 8 9 10 11 10 11 13 12 13 17 16 12 13 12 10 9 10 6 7 7 9 12 12 11 12 16 17 13 15 18 14 17 23 23 19 12 13 17 20 22 15 11
9 10 12 11 9 9 9 13 13 13 18 14 11 14 12 9 10 9 6 6 7 10 12 13 12 12 16 17 15 17 16 13 17 17 20 17 14 13 14 13 15 20 20
9 12 13 10 8 10 11 14 13 14 17 13 12 13 11 9 10 9 6 6 8 10 12 13 13 12 15 16 13 12 9 14 19 17 15 15 16 16 16 16 16 16 19
11 12 11 10 11 11 12 13 14 15 14 12 12 13 11 9 9 9 6 6 9 10 12 13 13 11 14 16 12 14 9 9 18 17 14 14 14 13 13 11 15 19 18
12 11 13 13 13 14 11 12 16 15 14 12 13 14 12 10 9 9 6 7 9 9 11 13 13 12 11 14 15 10 16 9 12 20 16 13 11 12 4 8 6 6 7
12 14 14 13 14 12 12 14 16 15 13 12 14 13 13 11 9 9 6 6 8 9 10 13 14 11 12 13 14 13 11 13 10 13 18 16 11 10 9 6 6 19 14
17 11 10 10 12 13 13 15 16 13 11 11 14 13 12 12 10 9 6 6 8 8 9 12 14 12 11 12 14 15 13 13 10 12 14 16 24 9 7 8 7 8 7
8 11 13 13 16 15 13 14 17 12 9 11 13 13 13 13 10 10 6 6 8 7 8 9 12 15 10 10 11 12 15 13 14 9 12 13 13 28 18 8 7 7 10
8 12 13 13 14 13 12 14 14 11 12 12 11 12 13 13 10 11 6 6 7 7 7 7 8 11 14 11 9 11 11 13 14 13 9 10 13 13 18 27 14 9 8
10 11 16 12 11 14 12 14 12 11 11 12 12 13 13 14 11 11 8 6 7 7 7 7 6 7 9 12 13 10 10 11 12 13 11 13 7 12 12 13 19 23 16
10 11 16 12 12 14 12 14 11 9 8 9 10 14 15 15 13 12 10 6 7 7 7 7 6 5 5 7 11 12 12 9 10 11 11 13 12 8 10 12 12 13 16
9 11 12 16 13 13 12 13 12 9 8 9 10 11 15 17 15 13 12 8 7 7 7 7 7 6 5 5 6 8 11 13 11 9 12 12 12 11 13 8 12 12 12
9 11 12 14 15 15 13 13 11 9 9 10 9 8 10 17 16 16 13 10 8 8 7 7 7 7 6 6 6 6 7 11 13 12 10 11 12 12 13 12 9 11 12
9 12 10 13 14 15 15 14 12 9 9 9 11 10 5 7 14 16 15 10 10 9 8 8 7 7 8 7 7 6 6 7 11 13 12 10 11 13 12 12 12 14 8
9 13 11 14 14 15 16 15 13 10 8 7 7 9 8 9 7 13 16 14 11 10 9 8 6 6 8 8 8 8 7 7 8 12 14 12 10 11 13 13 12 13 12
11 14 13 14 16 14 13 14 14 14 12 10 8 7 9 10 9 10 10 15 15 11 10 9 5 5 7 8 7 7 8 8 8 10 14 14 11 10 12 13 14 13 11
18 17 15 16 13 12 11 10 9 9 12 15 12 10 7 8 10 11 9 14 14 14 12 10 7 4 10 8 8 7 7 8 8 9 13 15 14 11 11 13 14 13 14
Height
3116 3111 3106 3102 3098 3093 3087 3079 3073 3066 3059 3051 3044 3038 3032 3027 3021 3017 3013 3009 3006 3002 2999 2995 2991 2986 2981 2977 2972 2967 2962 2957 2947 2945 2941 2938 2936 2933 2933 2934 2933 2935 2936
3107 3103 3100 3096 3091 3084 3078 3071 3063 3055 3048 3040 3034 3028 3022 3018 3014 3010 3007 3003 2999 2995 2992 2987 2983 2978 2973 2968 2962 2956 2950 2945 2938 2932 2930 2926 2923 2922 2920 2922 2923 2924 2925
3101 3098 3093 3087 3081 3075 3068 3061 3054 3047 3040 3032 3025 3020 3015 3010 3007 3003 3001 2997 2992 2989 2984 2980 2975 2970 2964 2958 2952 2945 2939 2933 2928 2922 2919 2916 2912 2911 2910 2910 2911 2912 2914
3094 3089 3083 3078 3073 3066 3059 3053 3046 3038 3031 3024 3017 3013 3007 3003 3000 2998 2994 2990 2986 2982 2977 2972 2967 2961 2954 2948 2941 2935 2929 2924 2919 2913 2909 2906 2903 2901 2900 2899 2901 2903 2904
3085 3081 3075 3070 3064 3058 3051 3044 3037 3030 3023 3016 3011 3006 3001 2997 2994 2991 2988 2984 2980 2975 2971 2965 2959 2953 2945 2938 2931 2926 2921 2915 2909 2904 2900 2897 2895 2893 2891 2891 2891 2893 2894
3078 3073 3068 3062 3056 3049 3043 3036 3030 3022 3016 3010 3004 2999 2995 2991 2988 2985 2982 2978 2973 2968 2963 2958 2951 2944 2936 2930 2924 2919 2913 2907 2902 2897 2893 2890 2888 2887 2886 2885 2884 2884 2886
3070 3065 3059 3053 3048 3041 3035 3028 3022 3016 3010 3004 2998 2994 2990 2986 2983 2980 2976 2972 2968 2962 2956 2949 2943 2936 2928 2921 2917 2912 2907 2901 2895 2890 2886 2884 2881 2880 2879 2878 2878 2877 2879
3062 3057 3051 3045 3040 3034 3027 3021 3014 3008 3003 2997 2993 2989 2985 2981 2978 2975 2971 2967 2962 2956 2949 2942 2935 2928 2922 2915 2910 2905 2899 2894 2888 2884 2880 2878 2875 2873 2872 2872 2871 2872 2873
3054 3049 3044 3038 3032 3026 3020 3013 3007 3001 2996 2991 2987 2983 2979 2976 2972 2969 2965 2961 2957 2951 2943 2936 2929 2923 2916 2909 2904 2898 2893 2888 2883 2878 2875 2872 2870 2868 2866 2865 2866 2867 2868
3047 3041 3035 3030 3024 3018 3012 3006 3000 2994 2989 2984 2980 2977 2973 2970 2967 2964 2960 2956 2951 2945 2938 2931 2924 2918 2911 2905 2899 2893 2888 2883 2877 2873 2870 2867 2865 2864 2862 2861 2861 2862 2863
3038 3032 3027 3021 3016 3011 3005 2999 2993 2987 2981 2977 2974 2971 2968 2965 2962 2959 2955 2950 2945 2939 2933 2927 2921 2914 2908 2901 2896 2890 2885 2879 2874 2870 2867 2865 2863 2862 2860 2859 2859 2859 2859
3029 3024 3019 3014 3008 3003 2998 2992 2985 2980 2975 2972 2968 2965 2962 2960 2957 2954 2950 2946 2940 2934 2928 2923 2917 2911 2905 2899 2894 2889 2883 2878 2873 2869 2866 2864 2862 2860 2859 2858 2858 2857 2857
3021 3015 3010 3005 3000 2994 2989 2984 2978 2973 2969 2965 2962 2959 2957 2955 2952 2950 2946 2941 2936 2930 2925 2919 2913 2908 2902 2896 2891 2887 2882 2877 2872 2868 2866 2863 2862 2860 2860 2859 2858 2857 2857
3012 3007 3001 2996 2991 2986 2981 2976 2971 2967 2963 2959 2956 2954 2951 2949 2947 2944 2941 2937 2933 2927 2922 2916 2911 2905 2899 2894 2889 2885 2881 2877 2872 2868 2866 2863 2862 2861 2860 2859 2859 2858 2857
3003 2998 2993 2988 2984 2979 2973 2969 2964 2960 2957 2954 2951 2948 2946 2944 2942 2939 2937 2933 2929 2924 2919 2914 2909 2904 2899 2893 2888 2884 2880 2876 2872 2868 2865 2863 2862 2861 2860 2859 2858 2858 2857
2996 2990 2985 2980 2976 2971 2967 2962 2958 2954 2951 2948 2945 2943 2941 2938 2937 2934 2932 2929 2926 2921 2917 2913 2908 2903 2898 2893 2888 2884 2879 2876 2872 2868 2865 2862 2860 2859 2859 2858 2858 2857 2857
2988 2984 2979 2973 2968 2964 2960 2955 2952 2948 2945 2943 2939 2937 2935 2933 2931 2929 2927 2925 2922 2919 2915 2911 2906 2901 2896 2892 2888 2883 2879 2875 2871 2868 2865 2862 2859 2857 2856 2856 2856 2856 2857
2980 2975 2971 2966 2961 2957 2953 2949 2946 2943 2940 2937 2934 2931 2929 2927 2925 2924 2922 2921 2918 2916 2912 2908 2904 2900 2895 2891 2887 2883 2879 2875 2871 2868 2865 2862 2859 2857 2855 2854 2854 2854 2855
2974 2968 2963 2959 2954 2950 2947 2943 2940 2937 2934 2931 2929 2926 2923 2921 2919 2918 2917 2916 2914 2912 2909 2906 2902 2898 2894 2890 2886 2882 2878 2874 2871 2867 2864 2862 2859 2857 2855 2853 2852 2851 2852
2966 2961 2956 2952 2947 2943 2940 2937 2934 2931 2928 2925 2922 2919 2917 2915 2914 2912 2911 2910 2909 2907 2905 2902 2899 2896 2893 2889 2885 2880 2877 2873 2870 2866 2863 2861 2859 2857 2854 2852 2851 2850 2849
2958 2953 2948 2944 2940 2936 2933 2930 2927 2924 2922 2920 2917 2914 2911 2909 2907 2906 2905 2904 2903 2902 2900 2898 2895 2893 2890 2886 2883 2879 2875 2872 2868 2865 2862 2860 2857 2855 2853 2852 2850 2849 2848
2949 2945 2940 2936 2932 2928 2925 2922 2920 2917 2915 2913 2911 2908 2905 2903 2901 2900 2899 2898 2897 2896 2894 2893 2891 2889 2886 2883 2880 2877 2873 2870 2866 2863 2861 2858 2856 2853 2851 2850 2849 2848 2847
2940 2936 2932 2928 2923 2920 2916 2914 2912 2909 2907 2905 2903 2901 2899 2897 2895 2893 2892 2891 2890 2889 2888 2887 2885 2883 2881 2879 2876 2874 2871 2868 2864 2861 2858 2856 2853 2851 2849 2848 2846 2846 2845
2931 2927 2923 2919 2915 2911 2908 2906 2903 2901 2899 2897 2896 2894 2892 2890 2888 2886 2885 2883 2883 2882 2881 2880 2879 2878 2876 2874 2872 2869 2867 2864 2861 2858 2855 2853 2851 2849 2847 2845 2844 2843 2842
2920 2917 2913 2909 2906 2903 2900 2898 2895 2893 2891 2889 2887 2885 2884 2882 2881 2879 2877 2876 2874 2874 2873 2873 2872 2871 2870 2868 2866 2864 2862 2860 2857 2855 2852 2849 2847 2846 2844 2842 2841 2840 2839
2909 2905 2902 2899 2897 2895 2892 2890 2887 2885 2882 2880 2878 2877 2875 2873 2872 2870 2869 2867 2866 2865 2865 2865 2864 2864 2863 2862 2860 2859 2857 2854 2852 2850 2848 2845 2843 2842 2840 2839 2838 2837 2836